Zurück zum Katalog

FENGYUN 1C DEB

AktivPO
NORAD 30445·DEBRIS·🇨🇳 China

Gestartet May 10, 1999 von Taiyuan Satellite Launch Center

Loading…

Nächste Überflüge (nächste 24 Stunden)

TLE

AktuellSource: Space-Track

Epoche: Sep 14, 2026, 08:54 UTC

1 30445U 99025AFG 26257.37142596  .00001051  00000-0  26800-3 0  9996
2 30445  98.8672 227.3542 0102202 268.2476  90.7008 14.49887346 31759

Verfolge FENGYUN 1C DEB in Echtzeit mit AllMySat

Download on the App Store